Location: Hamayl? Da??
(36.7028°N, 30.1716°E)
Time: 01:11:29
(UTC+00:00)

BlueWalker 3 - Visible Passes

Search period start: 22 January 2026 00:00
Search period end: 01 February 2026 00:00
Orbit: 451 x 463 km, 53.2° (Epoch: 21 January)

Date Brightness Start Highest point End Pass type
(mag) Time Alt. Az. Time Alt. Az. Time Alt. Az.
22 Jan 3.6 16:47:57 10° W 16:50:56 25° NNW 16:52:13 20° N visible
23 Jan 3.2 16:12:12 10° W 16:15:24 31° NW 16:18:24 11° NNE visible
24 Jan 2.8 15:36:29 10° WSW 15:39:52 40° NW 15:43:16 10° NNE visible
25 Jan 4.4 16:41:30 10° NW 16:42:29 11° NNW 16:43:28 10° N visible
26 Jan 4.3 16:05:06 10° NW 16:06:48 13° NNW 16:08:30 10° N visible
